[[{"header":{"parameterUnit":"m.s-1","parameterCategory":1,"la1":30.2991,"la2":30.254,"lo1":-89.0895,"lo2":-89.0444,"dy":0.0017,"dx":0.0017,"nx":28,"ny":28,"refTime":"2023-09-27T03:00:00:Z","depth":0,"parameterNumber":2,"parameterNumberName":"U-component_of_WINDS"},"data":[0,0,0,0,0,0,0,0,0,0,0,0,0,0,0,0,0,0,0,0,0,0,0,0,0,0,0,0,0,0,0,0,0,0,0,0,0,0,0,0,0,0,0,0,0,0,0,0,0,0,0,0,0,0,0,0,0,0,-3.1343,-3.1343,0,-3.1373,-3.1373,-3.1374,-3.1279,-3.1276,-3.1274,-3.1271,-3.1303,-3.1306,-3.131,0,0,0,0,0,0,0,0,0,0,0,0,0,-3.1204,-3.1207,-3.1343,-3.1343,-3.1344,-3.1373,-3.1373,-3.1374,-3.128,-3.1276,-3.1273,-3.127,-3.1302,-3.1306,-3.131,0,0,0,0,0,0,0,0,0,0,0,0,0,-3.1252,-3.1208,-3.1343,-3.13,-3.1297,-3.1373,-3.1373,-3.1374,-3.1281,-3.1276,-3.1272,-3.1268,-3.1301,-3.1306,-3.1311,-3.143,0,0,-3.1327,-3.1329,0,0,0,0,0,0,0,0,-3.125,-3.1257,-3.1306,-3.1303,-3.13,-3.1318,-3.1336,-3.1393,-3.1282,-3.1287,-3.1271,-3.1266,-3.1312,-3.1316,-3.1331,-3.1431,-3.1433,-3.1328,-3.1331,-3.1333,-3.1335,0,0,0,0,0,0,0,-3.1246,-3.1256,-3.1355,-3.1307,-3.1303,-3.128,-3.1282,-3.1346,-3.1323,-3.1286,-3.1279,-3.1284,-3.1309,-3.1326,-3.1331,-3.1433,-3.1327,-3.1332,-3.1335,-3.1337,-3.1631,-3.1636,0,0,0,0,0,0,-3.1249,-3.1254,-3.1354,-3.1356,-3.1263,-3.1286,-3.1288,-3.1316,-3.1322,-3.1319,-3.1288,-3.128,-3.1319,-3.1325,-3.1332,-3.147,-3.1333,-3.1338,-3.1341,-3.1627,-3.1632,-3.1637,0,0,0,0,0,0,-3.1246,-3.1258,-3.1353,-3.1303,-3.1313,-3.1293,-3.1325,-3.1319,-3.1336,-3.1323,-3.1319,-3.1309,-3.1316,-3.1324,-3.1406,-3.147,-3.134,-3.1345,-3.1621,-3.1628,-3.1635,-3.175,0,0,0,0,0,0,-3.1242,-3.1258,-3.1303,-3.1304,-3.1316,-3.1427,-3.1329,-3.1323,-3.1345,-3.1335,-3.1342,-3.134,-3.1313,-3.1398,-3.1411,-3.1475,-3.1349,-3.1615,-3.1624,-3.1633,-3.174,-3.176,-3.1777,0,0,0,0,0,-3.1238,-3.1335,-3.1306,-3.1319,-3.1372,-3.1431,-3.1437,-3.1404,-3.1351,-3.1396,-3.1387,-3.1339,-3.1461,-3.1407,-3.1421,-3.1488,-3.1611,-3.1622,-3.1632,-3.1732,-3.1756,-3.1776,0,0,0,0,0,0,-3.1343,-3.1335,-3.1302,-3.1403,-3.1418,-3.1414,-3.147,-3.1431,-3.1462,-3.1451,-3.1409,-3.1412,-3.1501,-3.1502,-3.1443,-3.1602,-3.1527,-3.1541,-3.1598,-3.1621,-3.1639,-3.1637,-3.1354,0,0,0,0,0,-3.1378,-3.1426,-3.1416,-3.1506,-3.1515,-3.1492,-3.1516,-3.1489,-3.1503,-3.1509,-3.1507,-3.1523,-3.1564,-3.1593,-3.163,-3.174,-3.174,-3.1792,-3.181,-3.1825,-3.1838,-3.1895,-3.1918,-3.1671,-3.1671,-3.1671,0,0,-3.145,-3.1452,-3.1485,-3.1527,-3.1535,-3.1586,-3.1498,-3.1555,-3.1592,-3.1518,-3.1595,-3.1593,-3.1608,-3.1704,-3.1746,-3.1708,-3.1906,-3.1839,-3.1851,-3.1855,-3.1908,-3.1931,-3.1952,-3.1678,-3.1677,-3.1676,0,0,-3.1608,-3.1614,-3.1689,-3.1699,-3.1713,-3.1697,-3.1715,-3.1717,-3.1713,-3.1789,-3.1734,-3.1777,-3.185,-3.1863,-3.1879,-3.204,-3.1996,-3.2053,-3.2149,-3.2205,-3.2224,-3.2241,-3.2298,-3.2319,-3.2065,-3.2066,-3.2066,0,-3.1697,-3.1771,-3.1733,-3.1794,-3.1813,-3.1748,-3.1823,-3.1835,-3.1861,-3.1876,-3.1832,-3.1921,-3.1927,-3.2024,-3.2063,-3.2078,-3.2097,-3.2052,-3.2224,-3.2241,-3.2256,-3.231,-3.2332,-3.2072,-3.2072,-3.2071,-3.207,0,-3.1879,-3.1931,-3.199,-3.2015,-3.2041,-3.2109,-3.2081,-3.2113,-3.2083,-3.2071,-3.2149,-3.2153,-3.219,-3.2211,-3.2183,-3.2304,-3.228,-3.2231,-3.2155,-3.2287,-3.2337,-3.2358,-3.2082,-3.208,-3.2078,-3.2076,0,0,-3.2105,-3.2108,-3.213,-3.214,-3.215,-3.2189,-3.2254,-3.2289,-3.2316,-3.2336,-3.2389,-3.2451,-3.2405,-3.2424,-3.2397,-3.2446,-3.2572,-3.2391,-3.239,-3.2424,-3.2705,-3.2742,-3.2767,-3.2543,-3.2547,-3.255,-3.2704,0,-3.226,-3.237,-3.2337,-3.2448,-3.2495,-3.2433,-3.2489,-3.2501,-3.2491,-3.253,-3.2519,-3.2563,-3.25,-3.2511,-3.2557,-3.2548,-3.2628,-3.2536,-3.2592,-3.2595,-3.2591,-3.2793,-3.2832,-3.2977,-3.2723,-3.2727,-3.2729,0,-3.2457,-3.2483,-3.2598,-3.2599,-3.2617,-3.2668,-3.2697,-3.2735,-3.2747,-3.2736,-3.2756,-3.2718,-3.2781,-3.2703,-3.2789,-3.2727,-3.2748,-3.2747,-3.2752,-3.2756,-3.267,-3.2803,-3.3022,-3.3044,-3.276,-3.2757,-3.2755,0,-3.261,-3.2674,-3.2751,-3.2762,-3.2764,-3.2801,-3.2804,-3.2812,-3.2835,-3.286,-3.2874,-3.2907,-3.2925,-3.2951,-3.2923,-3.2869,-3.3013,-3.2934,-3.3006,-3.3007,-3.304,-3.3038,-3.3266,-3.3054,-3.3053,-3.3053,-3.3052,0,-3.2787,-3.286,-3.282,-3.2867,-3.2947,-3.2908,-3.2987,-3.2983,-3.299,-3.3035,-3.2983,-3.3027,-3.2987,-3.3027,-3.3006,-3.308,-3.3089,-3.3082,-3.3075,-3.3087,-3.3088,-3.31,-3.3089,-3.3058,-3.3057,-3.3056,-3.3055,0,-3.2972,-3.2948,-3.3027,-3.3023,-3.3023,-3.3082,-3.3078,-3.3121,-3.3107,-3.3165,-3.3177,-3.3155,-3.3199,-3.3174,-3.3219,-3.3205,-3.3301,-3.3281,-3.3297,-3.3292,-3.3366,-3.3359,-3.361,-3.3641,-3.3408,-3.341,-3.3412,0,-3.3086,-3.3141,-3.3141,-3.3168,-3.3174,-3.3217,-3.324,-3.3203,-3.3229,-3.3245,-3.3287,-3.3327,-3.3356,-3.343,-3.3418,-3.3453,-3.3433,-3.3518,-3.3438,-3.3447,-3.3434,-3.3431,-3.3436,-3.3535,-3.3538,-3.354,-3.3542,0,-3.3292,-3.3277,-3.3311,-3.3342,-3.337,-3.3393,-3.3411,-3.3435,-3.3398,-3.343,-3.3474,-3.3497,-3.3543,-3.3583,-3.3612,-3.3614,-3.3572,-3.3567,-3.3585,-3.3598,-3.3605,-3.3602,-3.3341,-3.3561,-3.3559,-3.3558,-3.3557,-3.3556,-3.3445,-3.349,-3.3497,-3.3537,-3.3546,-3.3564,-3.3604,-3.3595,-3.3631,-3.3665,-3.3641,-3.3693,-3.3702,-3.3737,-3.3745,-3.3785,-3.375,-3.3778,-3.3784,-3.3792,-3.3802,-3.3598,-3.379,-3.379,-3.3789,-3.3788,-3.3788,0,-3.3647,-3.3648,-3.3686,-3.3712,-3.3743,-3.37,-3.3717,-3.3746,-3.3792,-3.3804,-3.3834,-3.3885,-3.3923,-3.3914,-3.3948,-3.3982,-3.3963,-3.3992,-3.3989,-3.399,-3.3831,-3.3811,-3.4006,-3.4006,-3.4006,-3.4006,-3.4006,-3.4006,-3.3756,-3.383,-3.3816,-3.3893,-3.3894,-3.3944,-3.3958,-3.3974,-3.3983,-3.4041,-3.4072,-3.4066,-3.4069,-3.4103,-3.4136,-3.4132,-3.4147,-3.4183,-3.4172,-3.4023,-3.4002,-3.3981,-3.3963,-3.4187,-3.4187,-3.4329,-3.433,-3.4331]},{"header":{"parameterUnit":"m.s-1","parameterCategory":1,"la1":30.2991,"la2":30.254,"lo1":-89.0895,"lo2":-89.0444,"dy":0.0017,"dx":0.0017,"nx":28,"ny":28,"refTime":"2023-09-27T03:00:00:Z","depth":0,"parameterNumber":3,"parameterNumberName":"V-component_of_WINDS"},"data":[0,0,0,0,0,0,0,0,0,0,0,0,0,0,0,0,0,0,0,0,0,0,0,0,0,0,0,0,0,0,0,0,0,0,0,0,0,0,0,0,0,0,0,0,0,0,0,0,0,0,0,0,0,0,0,0,0,0,-3.4522,-3.4523,0,-3.4608,-3.4609,-3.4609,-3.4583,-3.4582,-3.458,-3.4578,-3.4661,-3.4665,-3.4668,0,0,0,0,0,0,0,0,0,0,0,0,0,-3.4332,-3.4336,-3.4522,-3.4523,-3.4525,-3.4607,-3.4609,-3.461,-3.4584,-3.4582,-3.4579,-3.4577,-3.466,-3.4664,-3.4669,0,0,0,0,0,0,0,0,0,0,0,0,0,-3.4416,-3.4337,-3.4522,-3.4522,-3.4523,-3.4607,-3.4609,-3.461,-3.4584,-3.4582,-3.4579,-3.4576,-3.4658,-3.4664,-3.4669,-3.4758,0,0,-3.4687,-3.469,0,0,0,0,0,0,0,0,-3.4411,-3.4423,-3.4521,-3.4522,-3.4523,-3.4582,-3.4572,-3.466,-3.4585,-3.4561,-3.4578,-3.4575,-3.4637,-3.4644,-3.4666,-3.4762,-3.4766,-3.4688,-3.4691,-3.4694,-3.4695,0,0,0,0,0,0,0,-3.4405,-3.4419,-3.4556,-3.4522,-3.4524,-3.4515,-3.4524,-3.4588,-3.4612,-3.4563,-3.4561,-3.4572,-3.4637,-3.466,-3.4667,-3.4767,-3.4687,-3.4693,-3.4696,-3.4698,-3.4939,-3.4942,0,0,0,0,0,0,-3.4399,-3.4414,-3.4553,-3.4558,-3.4459,-3.4521,-3.4531,-3.4566,-3.4612,-3.4616,-3.4574,-3.457,-3.4652,-3.4661,-3.467,-3.4776,-3.4694,-3.4699,-3.4702,-3.4936,-3.494,-3.4943,0,0,0,0,0,0,-3.4395,-3.4412,-3.455,-3.4486,-3.4503,-3.4527,-3.4566,-3.4569,-3.4592,-3.462,-3.4624,-3.4594,-3.465,-3.4662,-3.4737,-3.4779,-3.4702,-3.4707,-3.4933,-3.4937,-3.4941,-3.499,0,0,0,0,0,0,-3.439,-3.4411,-3.4446,-3.4487,-3.4506,-3.4617,-3.4569,-3.4573,-3.4603,-3.4599,-3.464,-3.4644,-3.4649,-3.4728,-3.4742,-3.4785,-3.4711,-3.4929,-3.4935,-3.494,-3.4985,-3.4996,-3.5005,0,0,0,0,0,-3.4383,-3.4456,-3.4448,-3.4465,-3.4551,-3.4619,-3.463,-3.4635,-3.4607,-3.4641,-3.4659,-3.4643,-3.4772,-3.4736,-3.4752,-3.4797,-3.4926,-3.4933,-3.4939,-3.498,-3.4993,-3.5005,0,0,0,0,0,0,-3.4418,-3.4461,-3.4453,-3.4541,-3.4577,-3.4615,-3.4659,-3.4649,-3.4693,-3.4687,-3.469,-3.4699,-3.4776,-3.4794,-3.4753,-3.4885,-3.4845,-3.4855,-3.487,-3.4883,-3.4893,-3.4886,-3.4716,0,0,0,0,0,-3.4436,-3.4489,-3.4523,-3.4597,-3.4616,-3.4634,-3.4664,-3.4665,-3.4701,-3.4716,-3.4739,-3.4773,-3.4822,-3.4853,-3.4899,-3.4987,-3.4995,-3.5026,-3.5036,-3.5044,-3.5053,-3.5099,-3.5113,-3.4964,-3.4964,-3.4964,0,0,-3.4473,-3.4503,-3.4536,-3.4605,-3.4633,-3.4686,-3.4647,-3.4705,-3.4744,-3.4724,-3.4796,-3.4814,-3.4853,-3.4934,-3.4971,-3.4952,-3.5095,-3.5053,-3.5059,-3.5063,-3.5107,-3.5121,-3.5134,-3.4969,-3.4968,-3.4967,0,0,-3.4568,-3.4597,-3.4662,-3.4691,-3.4734,-3.4745,-3.4761,-3.48,-3.4812,-3.4885,-3.487,-3.4916,-3.4999,-3.5027,-3.5052,-3.5157,-3.5143,-3.5172,-3.5224,-3.5269,-3.5281,-3.5291,-3.5327,-3.5341,-3.518,-3.518,-3.518,0,-3.4609,-3.469,-3.4696,-3.4756,-3.4785,-3.4771,-3.4835,-3.4862,-3.4918,-3.4938,-3.4916,-3.502,-3.5045,-3.5132,-3.5157,-3.5178,-3.5195,-3.5167,-3.5279,-3.5289,-3.5299,-3.5334,-3.5347,-3.5183,-3.5183,-3.5183,-3.5183,0,-3.4737,-3.4794,-3.484,-3.4895,-3.4931,-3.4992,-3.5005,-3.504,-3.5038,-3.5051,-3.5124,-3.5154,-3.5205,-3.5226,-3.5224,-3.5312,-3.5299,-3.5278,-3.5237,-3.5316,-3.5349,-3.5362,-3.5188,-3.5187,-3.5186,-3.5185,0,0,-3.4856,-3.4914,-3.4931,-3.4955,-3.5001,-3.5044,-3.5104,-3.5156,-3.5184,-3.5223,-3.5272,-3.5343,-3.5323,-3.5352,-3.5353,-3.5393,-3.5472,-3.5366,-3.5367,-3.5384,-3.557,-3.5585,-3.56,-3.5464,-3.5466,-3.5468,-3.5566,0,-3.4955,-3.5062,-3.5069,-3.5165,-3.5216,-3.5204,-3.5255,-3.5288,-3.5302,-3.5346,-3.5361,-3.5411,-3.5382,-3.5399,-3.5438,-3.5454,-3.5509,-3.5447,-3.5508,-3.551,-3.5498,-3.5617,-3.5634,-3.5725,-3.5579,-3.5581,-3.5583,0,-3.5084,-3.5127,-3.523,-3.5268,-3.5289,-3.5336,-3.5383,-3.5426,-3.5462,-3.5469,-3.5501,-3.5496,-3.5556,-3.5514,-3.5595,-3.5553,-3.5577,-3.5589,-3.5593,-3.5598,-3.5551,-3.5625,-3.5754,-3.5768,-3.5603,-3.5602,-3.56,0,-3.5159,-3.5243,-3.5315,-3.5336,-3.5383,-3.5416,-3.5436,-3.547,-3.55,-3.5541,-3.556,-3.5607,-3.5632,-3.5667,-3.5674,-3.5643,-3.5755,-3.5714,-3.5761,-3.5761,-3.5785,-3.5783,-3.5919,-3.5802,-3.5802,-3.5802,-3.5802,0,-3.5268,-3.533,-3.5349,-3.5393,-3.5462,-3.5469,-3.5536,-3.5554,-3.5584,-3.563,-3.5621,-3.5664,-3.5671,-3.5715,-3.5721,-3.5786,-3.5798,-3.5804,-3.5805,-3.5805,-3.5804,-3.582,-3.5814,-3.5806,-3.5805,-3.5804,-3.5803,0,-3.5363,-3.5379,-3.5456,-3.5494,-3.5505,-3.5554,-3.5585,-3.5626,-3.5639,-3.5697,-3.5711,-3.5731,-3.5782,-3.5793,-3.5853,-3.5857,-3.5935,-3.5929,-3.5923,-3.5922,-3.5968,-3.5963,-3.6119,-3.6139,-3.601,-3.6012,-3.6013,0,-3.5431,-3.5479,-3.5523,-3.5553,-3.5576,-3.5626,-3.5657,-3.5664,-3.5697,-3.5741,-3.5777,-3.5827,-3.5868,-3.595,-3.5968,-3.6014,-3.6009,-3.6061,-3.6016,-3.6014,-3.6009,-3.6005,-3.601,-3.6069,-3.607,-3.6071,-3.6072,0,-3.5549,-3.5555,-3.5601,-3.565,-3.5687,-3.5726,-3.5762,-3.5787,-3.5799,-3.5836,-3.5889,-3.5921,-3.5983,-3.6032,-3.6078,-3.6097,-3.6086,-3.6086,-3.61,-3.6099,-3.6093,-3.6096,-3.5945,-3.6083,-3.6082,-3.6081,-3.608,-3.608,-3.5632,-3.5674,-3.5711,-3.5762,-3.5791,-3.5825,-3.5866,-3.5884,-3.5929,-3.5981,-3.5982,-3.604,-3.6073,-3.6134,-3.6156,-3.6199,-3.6183,-3.6202,-3.6207,-3.6211,-3.6215,-3.6087,-3.6208,-3.6207,-3.6207,-3.6207,-3.6207,0,-3.5749,-3.5773,-3.582,-3.5872,-3.5912,-3.59,-3.5939,-3.5973,-3.6024,-3.6057,-3.6098,-3.6158,-3.6206,-3.6229,-3.6275,-3.6306,-3.6302,-3.6318,-3.6315,-3.632,-3.6228,-3.6211,-3.632,-3.632,-3.632,-3.632,-3.632,-3.632,-3.5815,-3.5885,-3.5894,-3.5977,-3.5999,-3.6057,-3.608,-3.6111,-3.6137,-3.6206,-3.6246,-3.6261,-3.6289,-3.6338,-3.6381,-3.6386,-3.6403,-3.6421,-3.6424,-3.6338,-3.6326,-3.6315,-3.63,-3.6425,-3.6425,-3.6512,-3.6513,-3.6513]}]]